,,,PA_Meas_PMT16A,,PR_Meas_QMR101_102,,RH_Meas_QMH101,,SR_Meas_QMS101,,TA_Meas_QMH101,,GenWind,,GenWind,
date,time,status,PA,status,PR,status,RH,status,SR,status,TA,status,DirAvg,status,SpdAvg,
2012-01-14, 00:00:04,VALID,999.497,VALID,0,VALID,93.1271,VALID,0,VALID,23.5628,VALID,24,VALID,0.71875,
2012-01-14, 00:01:04,VALID,999.49,VALID,0,VALID,93.1653,VALID,0,VALID,23.5433,VALID,24,VALID,0.774219,
2012-01-14, 00:02:04,VALID,999.448,VALID,0,VALID,93.2721,VALID,0.104696,VALID,23.5433,VALID,24,VALID,0.753906,
2012-01-14, 00:03:04,VALID,999.458,VALID,0,VALID,93.3255,VALID,0,VALID,23.5433,VALID,24,VALID,0.676953,
2012-01-14, 00:04:04,VALID,999.468,VALID,0,VALID,93.3255,VALID,0.104696,VALID,23.5238,VALID,24,VALID,0.642578,
2012-01-14, 00:05:04,VALID,999.447,VALID,0,VALID,93.3484,VALID,0,VALID,23.5043,VALID,24,VALID,0.541406,
2012-01-14, 00:06:04,VALID,999.45,VALID,0,VALID,93.3942,VALID,0.104696,VALID,23.5043,VALID,24,VALID,0.477734,
2012-01-14, 00:07:04,VALID,999.453,VALID,0,VALID,93.4323,VALID,0,VALID,23.5043,VALID,24,VALID,0.367969,
2012-01-14, 00:08:04,VALID,999.438,VALID,0,VALID,93.4476,VALID,0,VALID,23.5061,VALID,24,VALID,0.36875,
2012-01-14, 00:09:04,VALID,999.46,VALID,0,VALID,93.4934,VALID,0,VALID,23.4848,VALID,24,VALID,0.396875,
2012-01-14, 00:10:04,VALID,999.485,VALID,0,VALID,93.5544,VALID,0,VALID,23.5256,VALID,24,VALID,0.427344,
2012-01-14, 00:11:04,VALID,999.494,VALID,0,VALID,93.6154,VALID,0.104696,VALID,23.5433,VALID,24,VALID,0.524609,
2012-01-14, 00:12:04,VALID,999.487,VALID,0,VALID,93.6383,VALID,0,VALID,23.5433,VALID,21,VALID,0.642578,
2012-01-14, 00:13:04,VALID,999.49,VALID,0,VALID,93.6841,VALID,0,VALID,23.5823,VALID,309,VALID,0.660547,
2012-01-14, 00:14:04,VALID,999.525,VALID,0,VALID,93.6841,VALID,0,VALID,23.5628,VALID,309,VALID,0.522656,
2012-01-14, 00:15:04,VALID,999.513,VALID,0,VALID,93.6765,VALID,0.104696,VALID,23.6036,VALID,309,VALID,0.553516,
2012-01-14, 00:16:04,VALID,999.51,VALID,0,VALID,93.6994,VALID,0,VALID,23.6019,VALID,309,VALID,0.392578,
2012-01-14, 00:17:04,VALID,999.479,VALID,0,VALID,93.7223,VALID,0,VALID,23.6214,VALID,309,VALID,0.130859,
2012-01-14, 00:18:04,VALID,999.457,VALID,0,VALID,93.707,VALID,0.104696,VALID,23.6214,VALID,309,VALID,0,
2012-01-14, 00:19:04,VALID,999.388,VALID,0,VALID,93.7223,VALID,0,VALID,23.6214,VALID,309,VALID,0,
2012-01-14, 00:20:04,VALID,999.402,VALID,0,VALID,93.7146,VALID,0.104696,VALID,23.6409,VALID,309,VALID,0,
2012-01-14, 00:21:04,VALID,999.378,VALID,0,VALID,93.6765,VALID,0,VALID,23.6214,VALID,309,VALID,0.00273437,
2012-01-14, 00:22:04,VALID,999.401,VALID,0,VALID,93.6917,VALID,0,VALID,23.6409,VALID,309,VALID,0.173047,
2012-01-14, 00:23:04,VALID,999.403,VALID,0,VALID,93.6841,VALID,0,VALID,23.6799,VALID,298,VALID,0.604688,
2012-01-14, 00:24:04,VALID,999.386,VALID,0,VALID,93.6994,VALID,0.104696,VALID,23.6799,VALID,292,VALID,0.607031,
2012-01-14, 00:25:04,VALID,999.421,VALID,0,VALID,93.6917,VALID,0,VALID,23.6994,VALID,292,VALID,0.691016,
2012-01-14, 00:26:04,VALID,999.407,VALID,0,VALID,93.6917,VALID,0.104696,VALID,23.6799,VALID,303,VALID,0.763672,
2012-01-14, 00:27:04,VALID,999.424,VALID,0,VALID,93.6536,VALID,0.104696,VALID,23.7012,VALID,306,VALID,0.755469,
2012-01-14, 00:28:04,VALID,999.413,VALID,0,VALID,93.6002,VALID,0,VALID,23.6604,VALID,312,VALID,0.691406,
2012-01-14, 00:29:04,VALID,999.394,VALID,0,VALID,93.5926,VALID,0.104696,VALID,23.6817,VALID,312,VALID,0.502734,
2012-01-14, 00:30:04,VALID,999.359,VALID,0,VALID,93.5468,VALID,0,VALID,23.6214,VALID,312,VALID,0.267188,
2012-01-14, 00:31:04,VALID,999.353,VALID,0,VALID,93.5544,VALID,0.104696,VALID,23.6214,VALID,312,VALID,0,
2012-01-14, 00:32:04,VALID,999.311,VALID,0,VALID,93.5468,VALID,0.104696,VALID,23.6019,VALID,312,VALID,0,
2012-01-14, 00:33:04,VALID,999.345,VALID,0,VALID,93.562,VALID,0,VALID,23.5841,VALID,312,VALID,0,
2012-01-14, 00:34:04,VALID,999.31,VALID,0,VALID,93.6002,VALID,0,VALID,23.5859,VALID,312,VALID,0.425,
2012-01-14, 00:35:04,VALID,999.3,VALID,0,VALID,93.6307,VALID,0,VALID,23.5841,VALID,312,VALID,0.432813,
2012-01-14, 00:36:04,VALID,999.329,VALID,0,VALID,93.6841,VALID,0,VALID,23.625,VALID,312,VALID,0.198828,
2012-01-14, 00:37:04,VALID,999.334,VALID,0,VALID,93.707,VALID,0,VALID,23.625,VALID,312,VALID,0.187891,
2012-01-14, 00:38:04,VALID,999.34,VALID,0,VALID,93.6994,VALID,0,VALID,23.6445,VALID,312,VALID,0,
2012-01-14, 00:39:04,VALID,999.332,VALID,0,VALID,93.6612,VALID,0,VALID,23.6445,VALID,312,VALID,0,
2012-01-14, 00:40:04,VALID,999.336,VALID,0,VALID,93.6383,VALID,0,VALID,23.625,VALID,312,VALID,0,
2012-01-14, 00:41:04,VALID,999.372,VALID,0,VALID,93.6307,VALID,0,VALID,23.6036,VALID,312,VALID,0,
2012-01-14, 00:42:04,VALID,999.421,VALID,0,VALID,93.6383,VALID,0,VALID,23.625,VALID,312,VALID,0,
2012-01-14, 00:43:04,VALID,999.479,VALID,0,VALID,93.6383,VALID,0,VALID,23.6232,VALID,312,VALID,0,
2012-01-14, 00:44:04,VALID,999.454,VALID,0,VALID,93.6002,VALID,0,VALID,23.6036,VALID,312,VALID,0,
2012-01-14, 00:45:04,VALID,999.449,VALID,0,VALID,93.5239,VALID,0,VALID,23.6054,VALID,312,VALID,0,
2012-01-14, 00:46:04,VALID,999.409,VALID,0,VALID,93.4552,VALID,0,VALID,23.5451,VALID,312,VALID,0,
2012-01-14, 00:47:04,VALID,999.414,VALID,0,VALID,93.4323,VALID,0,VALID,23.5061,VALID,312,VALID,0.647656,
2012-01-14, 00:48:04,VALID,999.396,VALID,0,VALID,93.4171,VALID,0,VALID,23.5061,VALID,312,VALID,0.459375,
2012-01-14, 00:49:04,VALID,999.39,VALID,0,VALID,93.4171,VALID,0,VALID,23.4884,VALID,312,VALID,0.482422,
2012-01-14, 00:50:04,VALID,999.352,VALID,0,VALID,93.4476,VALID,0,VALID,23.4671,VALID,87,VALID,0.898438,
2012-01-14, 00:51:04,VALID,999.358,VALID,0,VALID,93.5086,VALID,0,VALID,23.4866,VALID,87,VALID,0.844922,
2012-01-14, 00:52:04,VALID,999.341,VALID,0,VALID,93.4857,VALID,0,VALID,23.4671,VALID,87,VALID,0.941406,
2012-01-14, 00:53:04,VALID,999.328,VALID,0,VALID,93.4781,VALID,0,VALID,23.4493,VALID,87,VALID,1.07695,
2012-01-14, 00:54:04,VALID,999.319,VALID,0,VALID,93.5239,VALID,0,VALID,23.4493,VALID,87,VALID,0.947656,
2012-01-14, 00:55:04,VALID,999.281,VALID,0,VALID,93.5773,VALID,0,VALID,23.4493,VALID,87,VALID,0.622656,
2012-01-14, 00:56:04,VALID,999.29,VALID,0,VALID,93.6154,VALID,0,VALID,23.4085,VALID,87,VALID,0.448438,
2012-01-14, 00:57:04,VALID,999.247,VALID,0,VALID,93.6307,VALID,0,VALID,23.428,VALID,87,VALID,0.331641,
2012-01-14, 00:58:04,VALID,999.251,VALID,0,VALID,93.6383,VALID,0,VALID,23.428,VALID,87,VALID,0.35,
2012-01-14, 00:59:04,VALID,999.236,VALID,0,VALID,93.6917,VALID,0,VALID,23.4688,VALID,87,VALID,0.135937,
2012-01-14, 01:00:04,VALID,999.253,VALID,0,VALID,93.7146,VALID,0,VALID,23.4475,VALID,87,VALID,0.100781,
2012-01-14, 01:01:04,VALID,999.23,VALID,0,VALID,93.7146,VALID,0,VALID,23.5079,VALID,87,VALID,0,
2012-01-14, 01:02:04,VALID,999.241,VALID,0,VALID,93.7604,VALID,0,VALID,23.4866,VALID,87,VALID,0,
2012-01-14, 01:03:04,VALID,999.243,VALID,0,VALID,93.7757,VALID,0,VALID,23.5061,VALID,87,VALID,0,
2012-01-14, 01:04:04,VALID,999.233,VALID,0,VALID,93.7985,VALID,0,VALID,23.5469,VALID,87,VALID,0.344922,
2012-01-14, 01:05:04,VALID,999.203,VALID,0,VALID,93.7909,VALID,0,VALID,23.5451,VALID,87,VALID,0.569922,
2012-01-14, 01:06:04,VALID,999.188,VALID,0,VALID,93.7833,VALID,0,VALID,23.5451,VALID,74,VALID,0.891406,
2012-01-14, 01:07:04,VALID,999.194,VALID,0,VALID,93.8138,VALID,0,VALID,23.5841,VALID,73,VALID,0.772266,
2012-01-14, 01:08:04,VALID,999.171,VALID,0,VALID,93.7451,VALID,0,VALID,23.5646,VALID,68,VALID,0.652344,
2012-01-14, 01:09:04,VALID,999.158,VALID,0,VALID,93.7757,VALID,0,VALID,23.5646,VALID,68,VALID,0.655469,
2012-01-14, 01:10:04,VALID,999.146,VALID,0,VALID,93.7528,VALID,0,VALID,23.5841,VALID,68,VALID,0.642578,
2012-01-14, 01:11:04,VALID,999.149,VALID,0,VALID,93.707,VALID,0,VALID,23.5841,VALID,68,VALID,0.628906,
2012-01-14, 01:12:04,VALID,999.102,VALID,0,VALID,93.6917,VALID,0,VALID,23.5646,VALID,68,VALID,0.583984,
2012-01-14, 01:13:04,VALID,999.142,VALID,0,VALID,93.6612,VALID,0,VALID,23.5646,VALID,68,VALID,0.396875,
2012-01-14, 01:14:04,VALID,999.134,VALID,0,VALID,93.6154,VALID,0,VALID,23.5256,VALID,68,VALID,0.360547,
2012-01-14, 01:15:04,VALID,999.137,VALID,0,VALID,93.562,VALID,0,VALID,23.5256,VALID,68,VALID,0.128125,
2012-01-14, 01:16:04,VALID,999.115,VALID,0,VALID,93.5544,VALID,0,VALID,23.5061,VALID,68,VALID,0.244922,
2012-01-14, 01:17:04,VALID,999.088,VALID,0,VALID,93.5315,VALID,0,VALID,23.4866,VALID,68,VALID,0.185547,
2012-01-14, 01:18:04,VALID,999.08,VALID,0,VALID,93.5086,VALID,0,VALID,23.4884,VALID,68,VALID,0.383984,
2012-01-14, 01:19:04,VALID,999.076,VALID,0,VALID,93.501,VALID,0,VALID,23.4475,VALID,68,VALID,0.607031,
2012-01-14, 01:20:04,VALID,999.045,VALID,0,VALID,93.5239,VALID,0,VALID,23.428,VALID,68,VALID,0.550391,
2012-01-14, 01:21:04,VALID,999.031,VALID,0,VALID,93.5849,VALID,0,VALID,23.4085,VALID,68,VALID,0.40625,
2012-01-14, 01:22:04,VALID,999.013,VALID,0,VALID,93.6002,VALID,0,VALID,23.4085,VALID,68,VALID,0.339844,
2012-01-14, 01:23:04,VALID,999.012,VALID,0,VALID,93.6231,VALID,0,VALID,23.4085,VALID,68,VALID,0.180859,
2012-01-14, 01:24:04,VALID,999.007,VALID,0,VALID,93.6231,VALID,0,VALID,23.3695,VALID,68,VALID,0.00117188,
2012-01-14, 01:25:04,VALID,998.983,VALID,0,VALID,93.6154,VALID,0,VALID,23.35,VALID,68,VALID,0.164453,
2012-01-14, 01:26:04,VALID,998.936,VALID,0,VALID,93.6002,VALID,0,VALID,23.311,VALID,68,VALID,0.404297,
2012-01-14, 01:27:04,VALID,998.954,VALID,0,VALID,93.6383,VALID,0,VALID,23.2915,VALID,68,VALID,0.677734,
2012-01-14, 01:28:04,VALID,998.913,VALID,0,VALID,93.6765,VALID,0,VALID,23.2915,VALID,68,VALID,0.771875,
2012-01-14, 01:29:04,VALID,998.897,VALID,0,VALID,93.7604,VALID,0,VALID,23.2915,VALID,68,VALID,0.660547,
2012-01-14, 01:30:04,VALID,998.874,VALID,0,VALID,93.8138,VALID,0,VALID,23.2915,VALID,68,VALID,0.521094,
2012-01-14, 01:31:04,VALID,998.884,VALID,0,VALID,93.8138,VALID,0,VALID,23.2524,VALID,68,VALID,0.424219,
2012-01-14, 01:32:04,VALID,998.875,VALID,0,VALID,93.8291,VALID,0,VALID,23.2524,VALID,68,VALID,0.126953,
2012-01-14, 01:33:04,VALID,998.881,VALID,0,VALID,93.8291,VALID,0,VALID,23.2524,VALID,68,VALID,0,
2012-01-14, 01:34:04,VALID,998.899,VALID,0,VALID,93.8291,VALID,0,VALID,23.2542,VALID,68,VALID,0,
2012-01-14, 01:35:04,VALID,998.86,VALID,0,VALID,93.8443,VALID,0,VALID,23.2329,VALID,68,VALID,0,
2012-01-14, 01:36:04,VALID,998.898,VALID,0,VALID,93.8748,VALID,0,VALID,23.2329,VALID,68,VALID,0,
2012-01-14, 01:37:04,VALID,998.886,VALID,0,VALID,93.913,VALID,0,VALID,23.2524,VALID,68,VALID,0.153906,
2012-01-14, 01:38:04,VALID,998.876,VALID,0,VALID,93.9588,VALID,0,VALID,23.2932,VALID,68,VALID,0.234766,
2012-01-14, 01:39:04,VALID,998.872,VALID,0,VALID,93.9817,VALID,0,VALID,23.2915,VALID,68,VALID,0.366797,
2012-01-14, 01:40:04,VALID,998.853,VALID,0,VALID,94.0122,VALID,0,VALID,23.311,VALID,68,VALID,0.296094,
2012-01-14, 01:41:04,VALID,998.823,VALID,0,VALID,94.0351,VALID,0,VALID,23.3305,VALID,68,VALID,0.285547,
2012-01-14, 01:42:04,VALID,998.817,VALID,0,VALID,94.0732,VALID,0,VALID,23.35,VALID,68,VALID,0.308594,
2012-01-14, 01:43:04,VALID,998.824,VALID,0,VALID,94.0808,VALID,0,VALID,23.3695,VALID,68,VALID,0.440234,
2012-01-14, 01:44:04,VALID,998.821,VALID,0,VALID,94.0961,VALID,0,VALID,23.389,VALID,68,VALID,0.258594,
2012-01-14, 01:45:04,VALID,998.795,VALID,0,VALID,94.0961,VALID,0,VALID,23.4085,VALID,68,VALID,0,
2012-01-14, 01:46:04,VALID,998.822,VALID,0,VALID,94.0961,VALID,0,VALID,23.4085,VALID,68,VALID,0.0558594,
2012-01-14, 01:47:04,VALID,998.814,VALID,0,VALID,94.1037,VALID,0,VALID,23.4493,VALID,68,VALID,0.198828,
2012-01-14, 01:48:04,VALID,998.821,VALID,0,VALID,94.0732,VALID,0,VALID,23.4475,VALID,68,VALID,0,
2012-01-14, 01:49:04,VALID,998.836,VALID,0,VALID,94.0732,VALID,0,VALID,23.4067,VALID,68,VALID,0,
2012-01-14, 01:50:04,VALID,998.798,VALID,0,VALID,94.0274,VALID,0,VALID,23.428,VALID,68,VALID,0,
2012-01-14, 01:51:04,VALID,998.812,VALID,0,VALID,94.0122,VALID,0,VALID,23.4067,VALID,68,VALID,0,
2012-01-14, 01:52:04,VALID,998.803,VALID,0,VALID,94.0122,VALID,0,VALID,23.428,VALID,68,VALID,0,
2012-01-14, 01:53:04,VALID,998.826,VALID,0,VALID,94.0274,VALID,0,VALID,23.4263,VALID,68,VALID,0,
2012-01-14, 01:54:04,VALID,998.826,VALID,0,VALID,94.0274,VALID,0,VALID,23.4475,VALID,68,VALID,0,
2012-01-14, 01:55:04,VALID,998.811,VALID,0,VALID,94.0503,VALID,0,VALID,23.4475,VALID,68,VALID,0,
2012-01-14, 01:56:04,VALID,998.862,VALID,0,VALID,94.0351,VALID,0,VALID,23.4067,VALID,68,VALID,0,
2012-01-14, 01:57:04,VALID,998.842,VALID,0,VALID,94.0351,VALID,0,VALID,23.4475,VALID,68,VALID,0.284766,
2012-01-14, 01:58:04,VALID,998.848,VALID,0,VALID,94.0732,VALID,0,VALID,23.4653,VALID,99,VALID,0.68125,
2012-01-14, 01:59:04,VALID,998.89,VALID,0,VALID,94.0808,VALID,0,VALID,23.4848,VALID,99,VALID,0.369531,
2012-01-14, 02:00:04,VALID,998.872,VALID,0,VALID,94.0732,VALID,0,VALID,23.4848,VALID,99,VALID,0.48125,
2012-01-14, 02:01:04,VALID,998.849,VALID,0,VALID,94.0808,VALID,0,VALID,23.5256,VALID,80,VALID,0.455859,
2012-01-14, 02:02:04,VALID,998.813,VALID,0,VALID,94.0427,VALID,0,VALID,23.5061,VALID,80,VALID,0.316406,
2012-01-14, 02:03:04,VALID,998.804,VALID,0,VALID,94.0198,VALID,0,VALID,23.5061,VALID,80,VALID,0.25625,
2012-01-14, 02:04:04,VALID,998.798,VALID,0,VALID,94.0122,VALID,0,VALID,23.5061,VALID,80,VALID,0.235156,
2012-01-14, 02:05:04,VALID,998.792,VALID,0,VALID,94.0198,VALID,0,VALID,23.4848,VALID,80,VALID,0.294141,
2012-01-14, 02:06:04,VALID,998.752,VALID,0,VALID,93.9893,VALID,0,VALID,23.4866,VALID,80,VALID,0.368359,
2012-01-14, 02:07:04,VALID,998.738,VALID,0,VALID,94.0198,VALID,0,VALID,23.4866,VALID,80,VALID,0.549609,
2012-01-14, 02:08:04,VALID,998.756,VALID,0,VALID,94.0198,VALID,0,VALID,23.5061,VALID,80,VALID,0.598437,
2012-01-14, 02:09:04,VALID,998.765,VALID,0,VALID,94.0274,VALID,0,VALID,23.5061,VALID,70,VALID,0.538672,
2012-01-14, 02:10:04,VALID,998.761,VALID,0,VALID,93.9893,VALID,0,VALID,23.4653,VALID,16,VALID,0.95625,
2012-01-14, 02:11:04,VALID,998.748,VALID,0,VALID,94.0045,VALID,0.104696,VALID,23.4653,VALID,356,VALID,1.08125,
2012-01-14, 02:12:04,VALID,998.761,VALID,0,VALID,93.9359,VALID,0.104696,VALID,23.4475,VALID,356,VALID,0.685547,
2012-01-14, 02:13:04,VALID,998.79,VALID,0,VALID,93.9435,VALID,0,VALID,23.428,VALID,356,VALID,0.623828,
2012-01-14, 02:14:04,VALID,998.803,VALID,0,VALID,93.9511,VALID,0.104696,VALID,23.4067,VALID,356,VALID,0.444141,
2012-01-14, 02:15:04,VALID,998.803,VALID,0,VALID,93.913,VALID,0,VALID,23.4085,VALID,356,VALID,0.442187,
2012-01-14, 02:16:04,VALID,998.806,VALID,0,VALID,93.8977,VALID,0,VALID,23.3677,VALID,356,VALID,0.553906,
2012-01-14, 02:17:04,VALID,998.82,VALID,0,VALID,93.9054,VALID,0,VALID,23.3482,VALID,27,VALID,0.675391,
2012-01-14, 02:18:04,VALID,998.825,VALID,0,VALID,93.9283,VALID,0,VALID,23.35,VALID,48,VALID,0.981641,
2012-01-14, 02:19:04,VALID,998.845,VALID,0,VALID,93.9359,VALID,0,VALID,23.3287,VALID,49,VALID,0.93125,
2012-01-14, 02:20:04,VALID,998.831,VALID,0,VALID,93.9588,VALID,0,VALID,23.3287,VALID,49,VALID,0.813672,
2012-01-14, 02:21:04,VALID,998.826,VALID,0,VALID,93.9206,VALID,0,VALID,23.2897,VALID,49,VALID,0.692969,
2012-01-14, 02:22:04,VALID,998.806,VALID,0,VALID,93.9435,VALID,0,VALID,23.311,VALID,49,VALID,0.841016,
2012-01-14, 02:23:04,VALID,998.784,VALID,0,VALID,93.9817,VALID,0.104696,VALID,23.2897,VALID,40,VALID,0.841016,
2012-01-14, 02:24:04,VALID,998.784,VALID,0,VALID,94.0274,VALID,0,VALID,23.311,VALID,40,VALID,0.710547,
2012-01-14, 02:25:04,VALID,998.787,VALID,0,VALID,94.0656,VALID,0,VALID,23.2897,VALID,40,VALID,0.621484,
2012-01-14, 02:26:04,VALID,998.787,VALID,0,VALID,94.0732,VALID,0,VALID,23.311,VALID,40,VALID,0.441406,
2012-01-14, 02:27:04,VALID,998.77,VALID,0,VALID,94.1037,VALID,0,VALID,23.3092,VALID,40,VALID,0.221094,
2012-01-14, 02:28:04,VALID,998.767,VALID,0,VALID,94.1114,VALID,0,VALID,23.35,VALID,40,VALID,0.0851562,
2012-01-14, 02:29:04,VALID,998.783,VALID,0,VALID,94.0961,VALID,0.104696,VALID,23.3305,VALID,40,VALID,0,
2012-01-14, 02:30:04,VALID,998.755,VALID,0,VALID,94.0961,VALID,0,VALID,23.3305,VALID,40,VALID,0,
2012-01-14, 02:31:04,VALID,998.755,VALID,0,VALID,94.0885,VALID,0,VALID,23.3092,VALID,40,VALID,0,
2012-01-14, 02:32:04,VALID,998.751,VALID,0,VALID,94.1266,VALID,0,VALID,23.35,VALID,100,VALID,0.59375,
2012-01-14, 02:33:04,VALID,998.787,VALID,0,VALID,94.1571,VALID,0,VALID,23.389,VALID,100,VALID,0.732422,
2012-01-14, 02:34:04,VALID,998.808,VALID,0,VALID,94.1648,VALID,0,VALID,23.4103,VALID,100,VALID,0.313281,
2012-01-14, 02:35:04,VALID,998.813,VALID,0,VALID,94.1343,VALID,0,VALID,23.4085,VALID,100,VALID,0,
2012-01-14, 02:36:04,VALID,998.832,VALID,0,VALID,94.1114,VALID,0,VALID,23.4085,VALID,100,VALID,0,
2012-01-14, 02:37:04,VALID,998.85,VALID,0,VALID,94.058,VALID,0,VALID,23.389,VALID,100,VALID,0,
2012-01-14, 02:38:04,VALID,998.874,VALID,0,VALID,94.0351,VALID,0,VALID,23.3695,VALID,100,VALID,0,
2012-01-14, 02:39:04,VALID,998.845,VALID,0,VALID,94.0503,VALID,0,VALID,23.4103,VALID,5,VALID,0.465234,
2012-01-14, 02:40:04,VALID,998.886,VALID,0,VALID,94.0274,VALID,0,VALID,23.389,VALID,5,VALID,0.539844,
2012-01-14, 02:41:04,VALID,998.841,VALID,0,VALID,94.0503,VALID,0,VALID,23.389,VALID,5,VALID,0.428125,
2012-01-14, 02:42:04,VALID,998.847,VALID,0,VALID,94.0351,VALID,0,VALID,23.4103,VALID,5,VALID,0.436719,
2012-01-14, 02:43:04,VALID,998.812,VALID,0,VALID,94.0351,VALID,0,VALID,23.4298,VALID,5,VALID,0.283984,
2012-01-14, 02:44:04,VALID,998.805,VALID,0,VALID,94.0503,VALID,0,VALID,23.4085,VALID,5,VALID,0.543359,
2012-01-14, 02:45:04,VALID,998.791,VALID,0,VALID,94.0503,VALID,0,VALID,23.4298,VALID,5,VALID,0.512109,
2012-01-14, 02:46:04,VALID,998.78,VALID,0,VALID,94.0656,VALID,0,VALID,23.4298,VALID,5,VALID,0.292578,
2012-01-14, 02:47:04,VALID,998.758,VALID,0,VALID,94.0656,VALID,0,VALID,23.4085,VALID,5,VALID,0.18125,
2012-01-14, 02:48:04,VALID,998.753,VALID,0,VALID,94.0503,VALID,0,VALID,23.4067,VALID,5,VALID,0.416406,
2012-01-14, 02:49:04,VALID,998.755,VALID,0,VALID,94.0503,VALID,0,VALID,23.4067,VALID,228,VALID,0.625391,
2012-01-14, 02:50:04,VALID,998.737,VALID,0,VALID,94.0274,VALID,0.104696,VALID,23.4067,VALID,228,VALID,0.0398437,
2012-01-14, 02:51:04,VALID,998.75,VALID,0,VALID,94.0503,VALID,0,VALID,23.4067,VALID,228,VALID,0,
2012-01-14, 02:52:04,VALID,998.741,VALID,0,VALID,94.0122,VALID,0,VALID,23.3872,VALID,228,VALID,0,
2012-01-14, 02:53:04,VALID,998.726,VALID,0,VALID,93.9893,VALID,0,VALID,23.4067,VALID,228,VALID,0,
2012-01-14, 02:54:04,VALID,998.736,VALID,0,VALID,93.974,VALID,0.104696,VALID,23.4085,VALID,228,VALID,0,
2012-01-14, 02:55:04,VALID,998.739,VALID,0,VALID,93.9817,VALID,0,VALID,23.3872,VALID,228,VALID,0,
2012-01-14, 02:56:04,VALID,998.713,VALID,0,VALID,93.974,VALID,0.104696,VALID,23.389,VALID,130,VALID,0.7,
2012-01-14, 02:57:04,VALID,998.703,VALID,0,VALID,93.9893,VALID,0,VALID,23.3872,VALID,113,VALID,1.02305,
2012-01-14, 02:58:04,VALID,998.704,VALID,0,VALID,94.0274,VALID,0,VALID,23.4067,VALID,108,VALID,0.852344,
2012-01-14, 02:59:04,VALID,998.698,VALID,0,VALID,93.9893,VALID,0,VALID,23.4475,VALID,108,VALID,0.430078,
2012-01-14, 03:00:04,VALID,998.692,VALID,0,VALID,93.8901,VALID,0.104696,VALID,23.4067,VALID,108,VALID,0.644141,
2012-01-14, 03:01:04,VALID,998.699,VALID,0,VALID,93.8901,VALID,0,VALID,23.4067,VALID,87,VALID,0.914063,
2012-01-14, 03:02:04,VALID,998.649,VALID,0,VALID,93.8367,VALID,0,VALID,23.4067,VALID,87,VALID,0.722266,
2012-01-14, 03:03:04,VALID,998.671,VALID,0,VALID,93.768,VALID,0,VALID,23.389,VALID,87,VALID,0.668359,
2012-01-14, 03:04:04,VALID,998.688,VALID,0,VALID,93.6841,VALID,0,VALID,23.3695,VALID,87,VALID,0.539063,
2012-01-14, 03:05:04,VALID,998.657,VALID,0,VALID,93.5926,VALID,0,VALID,23.3323,VALID,87,VALID,0.737891,
2012-01-14, 03:06:04,VALID,998.663,VALID,0,VALID,93.5697,VALID,0,VALID,23.2932,VALID,87,VALID,0.770703,
2012-01-14, 03:07:04,VALID,998.705,VALID,0,VALID,93.6383,VALID,0,VALID,23.2932,VALID,87,VALID,0.732813,
2012-01-14, 03:08:04,VALID,998.676,VALID,0,VALID,93.7223,VALID,0,VALID,23.2932,VALID,87,VALID,0.659766,
2012-01-14, 03:09:04,VALID,998.696,VALID,0,VALID,93.6917,VALID,0,VALID,23.2737,VALID,87,VALID,0.507422,
2012-01-14, 03:10:04,VALID,998.7,VALID,0,VALID,93.707,VALID,0,VALID,23.2737,VALID,87,VALID,0.396484,
2012-01-14, 03:11:04,VALID,998.691,VALID,0,VALID,93.7528,VALID,0,VALID,23.2542,VALID,87,VALID,0.621875,
2012-01-14, 03:12:04,VALID,998.687,VALID,0,VALID,93.7985,VALID,0,VALID,23.2329,VALID,87,VALID,0.733594,
2012-01-14, 03:13:04,VALID,998.697,VALID,0,VALID,93.9283,VALID,0,VALID,23.2932,VALID,87,VALID,0.533594,
2012-01-14, 03:14:04,VALID,998.691,VALID,0,VALID,93.9664,VALID,0,VALID,23.3323,VALID,87,VALID,0.355078,
2012-01-14, 03:15:04,VALID,998.678,VALID,0,VALID,93.8748,VALID,0,VALID,23.2737,VALID,87,VALID,0.632031,
2012-01-14, 03:16:04,VALID,998.688,VALID,0,VALID,93.7985,VALID,0,VALID,23.2347,VALID,15,VALID,0.827734,
2012-01-14, 03:17:04,VALID,998.736,VALID,0,VALID,93.768,VALID,0,VALID,23.1939,VALID,15,VALID,0.554297,
2012-01-14, 03:18:04,VALID,998.716,VALID,0,VALID,93.8291,VALID,0,VALID,23.1921,VALID,15,VALID,0.325391,
2012-01-14, 03:19:04,VALID,998.756,VALID,0,VALID,93.8901,VALID,0,VALID,23.2134,VALID,15,VALID,0.247266,
2012-01-14, 03:20:04,VALID,998.751,VALID,0,VALID,93.9283,VALID,0,VALID,23.2329,VALID,16,VALID,0.671484,
2012-01-14, 03:21:04,VALID,998.725,VALID,0,VALID,93.9817,VALID,0,VALID,23.2329,VALID,16,VALID,0.402344,
2012-01-14, 03:22:04,VALID,998.737,VALID,0,VALID,93.9969,VALID,0,VALID,23.2117,VALID,16,VALID,0.288672,
2012-01-14, 03:23:04,VALID,998.754,VALID,0,VALID,93.9817,VALID,0,VALID,23.2134,VALID,80,VALID,0.795703,
2012-01-14, 03:24:04,VALID,998.73,VALID,0,VALID,94.0122,VALID,0,VALID,23.2117,VALID,80,VALID,0.605078,
2012-01-14, 03:25:04,VALID,998.744,VALID,0,VALID,93.9969,VALID,0,VALID,23.2134,VALID,80,VALID,0.726172,
2012-01-14, 03:26:04,VALID,998.719,VALID,0,VALID,94.0351,VALID,0,VALID,23.2134,VALID,77,VALID,0.878906,
2012-01-14, 03:27:04,VALID,998.722,VALID,0,VALID,94.0961,VALID,0,VALID,23.2134,VALID,77,VALID,0.869141,
2012-01-14, 03:28:04,VALID,998.724,VALID,0,VALID,94.1114,VALID,0,VALID,23.2134,VALID,77,VALID,0.735547,
2012-01-14, 03:29:04,VALID,998.713,VALID,0,VALID,94.1037,VALID,0,VALID,23.1921,VALID,77,VALID,0.512891,
2012-01-14, 03:30:04,VALID,998.675,VALID,0,VALID,94.1114,VALID,0,VALID,23.1726,VALID,77,VALID,0.323047,
2012-01-14, 03:31:04,VALID,998.682,VALID,0,VALID,94.0961,VALID,0,VALID,23.1939,VALID,77,VALID,0.140625,
2012-01-14, 03:32:04,VALID,998.665,VALID,0,VALID,94.0656,VALID,0,VALID,23.1549,VALID,77,VALID,0,
2012-01-14, 03:33:04,VALID,998.672,VALID,0,VALID,94.0274,VALID,0,VALID,23.1159,VALID,77,VALID,0,
2012-01-14, 03:34:04,VALID,998.667,VALID,0,VALID,94.0274,VALID,0,VALID,23.0964,VALID,77,VALID,0,
2012-01-14, 03:35:04,VALID,998.627,VALID,0,VALID,94.0198,VALID,0,VALID,23.0573,VALID,77,VALID,0,
2012-01-14, 03:36:04,VALID,998.651,VALID,0,VALID,94.0427,VALID,0,VALID,23.0573,VALID,77,VALID,0,
2012-01-14, 03:37:04,VALID,998.631,VALID,0,VALID,94.0656,VALID,0,VALID,23.0378,VALID,77,VALID,0.230078,
2012-01-14, 03:38:04,VALID,998.622,VALID,0,VALID,94.0961,VALID,0,VALID,23.0166,VALID,77,VALID,0.242969,
2012-01-14, 03:39:04,VALID,998.638,VALID,0,VALID,94.1266,VALID,0,VALID,23.0573,VALID,77,VALID,0.194922,
2012-01-14, 03:40:04,VALID,998.626,VALID,0,VALID,94.1724,VALID,0,VALID,23.0769,VALID,77,VALID,0,
2012-01-14, 03:41:04,VALID,998.62,VALID,0,VALID,94.18,VALID,0,VALID,23.0769,VALID,77,VALID,0,
2012-01-14, 03:42:04,VALID,998.62,VALID,0,VALID,94.2029,VALID,0,VALID,23.0964,VALID,77,VALID,0,
2012-01-14, 03:43:04,VALID,998.594,VALID,0,VALID,94.2105,VALID,0,VALID,23.0964,VALID,77,VALID,0,
2012-01-14, 03:44:04,VALID,998.601,VALID,0,VALID,94.18,VALID,0,VALID,23.0964,VALID,77,VALID,0,
2012-01-14, 03:45:04,VALID,998.59,VALID,0,VALID,94.2105,VALID,0,VALID,23.0573,VALID,77,VALID,0,
2012-01-14, 03:46:04,VALID,998.589,VALID,0,VALID,94.1877,VALID,0,VALID,23.0573,VALID,77,VALID,0,
2012-01-14, 03:47:04,VALID,998.586,VALID,0,VALID,94.2182,VALID,0,VALID,23.0769,VALID,77,VALID,0,
2012-01-14, 03:48:04,VALID,998.606,VALID,0,VALID,94.2258,VALID,0,VALID,23.0573,VALID,77,VALID,0,